Time,TemperatureF,DewpointF,PressureIn,WindDirection,WindDirectionDegrees,WindSpeedMPH,WindSpeedGustMPH,Humidity,HourlyPrecipIn,Conditions,Clouds,dailyrainin,SolarRadiationWatts/m^2,SoftwareType,DateUTC
2013-03-17 00:02:00,41.1,36.0,29.90,WSW,250,21.8,21.9,82,0.00,RA,,0.00,5.8,WeatherDisplay:10.37,2013-03-17 07:02:00,
2013-03-17 00:07:00,41.1,36.3,29.90,WSW,249,20.7,22.4,83,0.00,RA,,0.00,5.8,WeatherDisplay:10.37,2013-03-17 07:07:00,
2013-03-17 00:12:00,41.1,36.0,29.90,West,266,20.4,21.9,82,0.00,CLR,,0.00,5.8,WeatherDisplay:10.37,2013-03-17 07:12:00,
2013-03-17 00:17:00,41.1,36.0,29.90,WSW,244,17.9,19.6,82,0.00,CLR,,0.00,5.8,WeatherDisplay:10.37,2013-03-17 07:17:00,
2013-03-17 00:22:00,41.1,36.3,29.91,WSW,254,20.6,20.7,83,0.00,CLR,,0.00,5.8,WeatherDisplay:10.37,2013-03-17 07:22:00,
2013-03-17 00:27:00,41.1,36.3,29.91,West,266,23.8,24.2,83,0.00,CLR,,0.00,8.1,WeatherDisplay:10.37,2013-03-17 07:27:00,
2013-03-17 00:32:00,41.2,36.1,29.91,West,268,22.7,23.0,82,0.00,CLR,,0.00,5.8,WeatherDisplay:10.37,2013-03-17 07:32:00,
2013-03-17 00:38:00,41.4,36.3,29.91,West,267,24.0,25.3,82,0.00,CLR,,0.00,8.1,WeatherDisplay:10.37,2013-03-17 07:38:00,
2013-03-17 00:43:00,41.5,36.1,29.91,West,264,23.9,25.3,81,0.00,CLR,,0.00,8.1,WeatherDisplay:10.37,2013-03-17 07:43:00,
2013-03-17 00:48:00,41.5,36.1,29.91,WSW,252,21.1,21.1,81,0.00,CLR,,0.00,5.8,WeatherDisplay:10.37,2013-03-17 07:48:00,
2013-03-17 00:53:00,41.6,36.2,29.92,West,269,23.1,23.1,81,0.00,CLR,,0.00,5.8,WeatherDisplay:10.37,2013-03-17 07:53:00,
2013-03-17 00:58:00,41.6,36.2,29.92,West,275,22.6,23.0,81,0.00,CLR,,0.00,5.8,WeatherDisplay:10.37,2013-03-17 07:58:00,
2013-03-17 01:03:00,41.6,35.9,29.93,WNW,290,22.1,23.0,80,0.00,CLR,,0.00,8.1,WeatherDisplay:10.37,2013-03-17 08:03:00,
2013-03-17 01:08:00,41.7,36.0,29.93,West,277,20.5,23.0,80,0.00,CLR,,0.00,5.8,WeatherDisplay:10.37,2013-03-17 08:08:00,
2013-03-17 01:13:00,41.6,35.9,29.93,WNW,286,17.8,19.6,80,0.00,CLR,,0.00,5.8,WeatherDisplay:10.37,2013-03-17 08:13:00,
2013-03-17 01:18:00,41.6,35.6,29.93,WSW,255,14.7,18.4,79,0.00,FEW,,0.00,5.8,WeatherDisplay:10.37,2013-03-17 08:18:00,
2013-03-17 01:23:00,41.4,35.4,29.93,WNW,292,15.8,19.6,79,0.00,FEW,,0.00,5.8,WeatherDisplay:10.37,2013-03-17 08:23:00,
2013-03-17 01:28:00,41.4,35.4,29.93,West,264,20.0,20.7,79,0.00,FEW,,0.00,5.8,WeatherDisplay:10.37,2013-03-17 08:28:00,
2013-03-17 01:33:00,41.5,35.5,29.93,West,264,21.2,21.9,79,0.00,FEW,,0.00,5.8,WeatherDisplay:10.37,2013-03-17 08:33:00,
2013-03-17 01:38:00,41.5,35.2,29.93,West,264,20.4,21.9,78,0.00,FEW,,0.00,5.8,WeatherDisplay:10.37,2013-03-17 08:38:00,
2013-03-17 01:43:00,41.5,35.2,29.94,West,277,18.2,21.9,78,0.00,FEW,,0.00,5.8,WeatherDisplay:10.37,2013-03-17 08:43:00,
2013-03-17 01:48:00,41.5,35.2,29.94,West,270,18.5,19.6,78,0.00,FEW,,0.00,5.8,WeatherDisplay:10.37,2013-03-17 08:48:00,
2013-03-17 01:53:00,41.5,35.2,29.94,West,264,17.1,17.3,78,0.00,FEW,,0.00,5.8,WeatherDisplay:10.37,2013-03-17 08:53:00,
2013-03-17 01:58:00,41.4,35.1,29.94,West,266,14.6,15.7,78,0.00,FEW,,0.00,5.8,WeatherDisplay:10.37,2013-03-17 08:58:00,
2013-03-17 02:03:00,41.4,35.4,29.94,West,263,19.1,20.7,79,0.00,CLR,,0.00,5.8,WeatherDisplay:10.37,2013-03-17 09:03:00,
2013-03-17 02:08:00,41.4,34.7,29.94,WSW,256,19.9,21.9,77,0.00,CLR,,0.00,5.8,WeatherDisplay:10.37,2013-03-17 09:08:00,
2013-03-17 02:13:00,41.4,34.7,29.95,WSW,256,17.9,19.6,77,0.00,CLR,,0.00,5.8,WeatherDisplay:10.37,2013-03-17 09:13:00,
2013-03-17 02:18:00,41.4,35.1,29.96,West,267,18.0,20.7,78,0.00,CLR,,0.00,8.1,WeatherDisplay:10.37,2013-03-17 09:18:00,
2013-03-17 02:23:00,41.4,34.7,29.96,West,263,14.6,17.3,77,0.00,CLR,,0.00,5.8,WeatherDisplay:10.37,2013-03-17 09:23:00,
2013-03-17 02:28:00,41.3,34.7,29.96,WSW,257,17.0,19.6,77,0.00,CLR,,0.00,5.8,WeatherDisplay:10.37,2013-03-17 09:28:00,
2013-03-17 02:33:00,41.3,35.0,29.96,WSW,240,13.7,16.1,78,0.00,CLR,,0.00,5.8,WeatherDisplay:10.37,2013-03-17 09:33:00,
2013-03-17 02:38:00,41.3,35.3,29.96,West,261,15.2,20.7,79,0.00,CLR,,0.00,8.1,WeatherDisplay:10.37,2013-03-17 09:38:00,
2013-03-17 02:43:00,41.3,35.3,29.96,West,261,14.4,18.4,79,0.00,CLR,,0.00,5.8,WeatherDisplay:10.37,2013-03-17 09:43:00,
2013-03-17 02:48:00,41.4,35.7,29.96,WSW,258,16.2,19.6,80,0.00,CLR,,0.00,5.8,WeatherDisplay:10.37,2013-03-17 09:48:00,
2013-03-17 02:53:00,41.4,35.4,29.97,WSW,251,17.4,19.6,79,0.00,CLR,,0.00,5.8,WeatherDisplay:10.37,2013-03-17 09:53:00,
2013-03-17 02:58:00,41.5,35.8,29.96,WSW,256,15.1,18.4,80,0.00,CLR,,0.00,8.1,WeatherDisplay:10.37,2013-03-17 09:58:00,
2013-03-17 03:03:00,41.5,35.8,29.96,WSW,240,16.7,22.4,80,0.00,CLR,,0.00,8.1,WeatherDisplay:10.37,2013-03-17 10:03:00,
2013-03-17 03:08:00,41.4,35.4,29.97,West,263,18.4,18.4,79,0.00,CLR,,0.00,5.8,WeatherDisplay:10.37,2013-03-17 10:08:00,
2013-03-17 03:14:00,41.4,35.4,29.97,WSW,258,16.7,18.4,79,0.00,CLR,,0.00,8.1,WeatherDisplay:10.37,2013-03-17 10:14:00,
2013-03-17 03:19:00,41.4,35.4,29.97,West,271,19.7,20.7,79,0.00,CLR,,0.00,5.8,WeatherDisplay:10.37,2013-03-17 10:19:00,
2013-03-17 03:24:00,41.4,35.4,29.97,West,265,21.9,21.9,79,0.00,CLR,,0.00,5.8,WeatherDisplay:10.37,2013-03-17 10:24:00,
2013-03-17 03:29:00,41.4,35.4,29.97,West,273,22.7,23.0,79,0.00,CLR,,0.00,5.8,WeatherDisplay:10.37,2013-03-17 10:29:00,
2013-03-17 03:34:00,41.4,35.4,29.97,West,263,19.8,21.9,79,0.00,CLR,,0.00,5.8,WeatherDisplay:10.37,2013-03-17 10:34:00,
2013-03-17 03:39:00,41.3,35.0,29.97,West,268,18.9,20.7,78,0.00,CLR,,0.00,5.8,WeatherDisplay:10.37,2013-03-17 10:39:00,
2013-03-17 03:44:00,41.2,34.9,29.97,West,263,20.1,20.7,78,0.00,CLR,,0.00,5.8,WeatherDisplay:10.37,2013-03-17 10:44:00,
2013-03-17 03:49:00,41.2,34.9,29.98,WSW,256,19.8,20.7,78,0.00,CLR,,0.00,5.8,WeatherDisplay:10.37,2013-03-17 10:49:00,
2013-03-17 03:54:00,41.2,34.9,29.98,WSW,255,16.9,19.6,78,0.00,CLR,,0.00,5.8,WeatherDisplay:10.37,2013-03-17 10:54:00,
2013-03-17 03:59:00,41.1,34.8,29.98,WSW,252,16.6,17.9,78,0.00,CLR,,0.00,5.8,WeatherDisplay:10.37,2013-03-17 10:59:00,
2013-03-17 04:04:00,41.1,34.8,29.98,West,259,16.9,18.4,78,0.00,CLR,,0.00,5.8,WeatherDisplay:10.37,2013-03-17 11:04:00,
2013-03-17 04:09:00,41.0,34.7,29.98,West,262,18.4,19.6,78,0.00,CLR,,0.00,8.1,WeatherDisplay:10.37,2013-03-17 11:09:00,
2013-03-17 04:14:00,41.0,34.7,29.98,West,267,16.8,18.4,78,0.00,CLR,,0.00,5.8,WeatherDisplay:10.37,2013-03-17 11:14:00,
2013-03-17 04:19:00,41.0,35.0,29.98,WSW,253,20.9,21.9,79,0.00,CLR,,0.00,5.8,WeatherDisplay:10.37,2013-03-17 11:19:00,
2013-03-17 04:24:00,41.0,35.0,29.99,WSW,256,16.4,17.3,79,0.00,CLR,,0.00,5.8,WeatherDisplay:10.37,2013-03-17 11:24:00,
2013-03-17 04:29:00,41.0,34.7,29.99,WSW,254,20.2,20.2,78,0.00,CLR,,0.00,5.8,WeatherDisplay:10.37,2013-03-17 11:29:00,
2013-03-17 04:34:00,41.0,34.7,29.99,WSW,241,19.4,21.9,78,0.00,CLR,,0.00,8.1,WeatherDisplay:10.37,2013-03-17 11:34:00,
2013-03-17 04:39:00,41.0,34.7,29.99,SW,235,16.3,21.9,78,0.00,CLR,,0.00,5.8,WeatherDisplay:10.37,2013-03-17 11:39:00,
2013-03-17 04:44:00,41.0,34.7,29.99,WSW,242,18.8,19.6,78,0.00,CLR,,0.00,5.8,WeatherDisplay:10.37,2013-03-17 11:44:00,
2013-03-17 04:49:00,41.0,35.0,29.99,WSW,251,18.4,20.7,79,0.00,CLR,,0.00,5.8,WeatherDisplay:10.37,2013-03-17 11:49:00,
2013-03-17 04:54:00,41.0,35.0,29.99,WSW,251,0.0,21.9,79,0.00,CLR,,0.00,5.8,WeatherDisplay:10.37,2013-03-17 11:54:00,
2013-03-17 04:59:00,41.0,35.0,30.00,WSW,252,15.7,19.6,79,0.00,CLR,,0.00,5.8,WeatherDisplay:10.37,2013-03-17 11:59:00,
2013-03-17 05:04:00,41.1,35.1,30.00,WSW,257,18.9,21.9,79,0.00,CLR,,0.00,5.8,WeatherDisplay:10.37,2013-03-17 12:04:00,
2013-03-17 05:09:00,41.1,35.1,30.00,WSW,243,14.1,16.1,79,0.00,CLR,,0.00,5.8,WeatherDisplay:10.37,2013-03-17 12:09:00,
2013-03-17 05:14:00,41.1,35.1,30.00,WSW,258,18.3,19.6,79,0.00,CLR,,0.00,5.8,WeatherDisplay:10.37,2013-03-17 12:14:00,
2013-03-17 05:19:00,41.1,35.1,30.01,West,260,16.9,18.4,79,0.00,FEW,,0.00,5.8,WeatherDisplay:10.37,2013-03-17 12:19:00,
2013-03-17 05:24:00,41.1,34.8,30.01,WSW,256,17.3,19.6,78,0.00,FEW,,0.00,5.8,WeatherDisplay:10.37,2013-03-17 12:24:00,
2013-03-17 05:29:00,41.2,35.2,30.02,WSW,242,15.7,19.6,79,0.00,FEW,,0.00,5.8,WeatherDisplay:10.37,2013-03-17 12:29:00,
2013-03-17 05:34:00,41.1,35.1,30.02,WSW,246,17.1,17.1,79,0.00,CLR,,0.00,5.8,WeatherDisplay:10.37,2013-03-17 12:34:00,
2013-03-17 05:39:00,41.0,34.7,30.02,WSW,242,17.9,19.6,78,0.00,CLR,,0.00,5.8,WeatherDisplay:10.37,2013-03-17 12:39:00,
2013-03-17 05:45:00,40.9,34.6,30.02,WSW,244,22.0,22.0,78,0.00,CLR,,0.00,5.8,WeatherDisplay:10.37,2013-03-17 12:45:00,
2013-03-17 05:50:00,40.9,34.6,30.02,WSW,246,16.2,19.6,78,0.00,CLR,,0.00,5.8,WeatherDisplay:10.37,2013-03-17 12:50:00,
2013-03-17 05:55:00,40.9,34.6,30.02,West,262,14.3,17.3,78,0.00,CLR,,0.00,5.8,WeatherDisplay:10.37,2013-03-17 12:55:00,
2013-03-17 06:00:00,40.8,34.5,30.02,WSW,258,15.9,16.1,78,0.00,CLR,,0.00,5.8,WeatherDisplay:10.37,2013-03-17 13:00:00,
2013-03-17 06:05:00,40.8,34.5,30.02,WSW,241,16.9,21.9,78,0.00,CLR,,0.00,5.8,WeatherDisplay:10.37,2013-03-17 13:05:00,
2013-03-17 06:10:00,40.8,34.5,30.02,West,262,16.7,19.6,78,0.00,CLR,,0.00,5.8,WeatherDisplay:10.37,2013-03-17 13:10:00,
2013-03-17 06:15:00,40.8,34.5,30.03,WSW,240,15.9,18.4,78,0.00,CLR,,0.00,5.8,WeatherDisplay:10.37,2013-03-17 13:15:00,
2013-03-17 06:20:00,40.8,34.8,30.03,West,264,19.3,20.7,79,0.00,SCT,,0.00,5.8,WeatherDisplay:10.37,2013-03-17 13:20:00,
2013-03-17 06:25:00,40.8,34.8,30.03,WSW,258,20.1,20.7,79,0.00,SCT,,0.00,5.8,WeatherDisplay:10.37,2013-03-17 13:25:00,
2013-03-17 06:30:00,40.8,34.8,30.03,WSW,243,21.0,21.9,79,0.00,SCT,,0.00,5.8,WeatherDisplay:10.37,2013-03-17 13:30:00,
2013-03-17 06:35:00,40.8,34.8,30.03,West,261,20.0,22.0,79,0.00,SCT,,0.00,5.8,WeatherDisplay:10.37,2013-03-17 13:35:00,
2013-03-17 06:40:00,40.8,34.8,30.03,WSW,258,18.7,19.6,79,0.00,SCT,,0.00,5.8,WeatherDisplay:10.37,2013-03-17 13:40:00,
2013-03-17 06:45:00,40.8,34.7,30.03,WSW,255,20.0,21.0,79,0.00,SCT,,0.00,5.8,WeatherDisplay:10.37,2013-03-17 13:45:00,
2013-03-17 06:50:00,40.7,34.7,30.03,West,261,18.6,19.6,79,0.00,SCT,,0.00,5.8,WeatherDisplay:10.37,2013-03-17 13:50:00,
2013-03-17 06:55:00,40.7,34.7,30.04,West,259,16.0,20.0,79,0.00,SCT,,0.00,5.8,WeatherDisplay:10.37,2013-03-17 13:55:00,
2013-03-17 07:00:00,40.7,34.7,30.04,West,267,11.9,16.1,79,0.00,SCT,,0.00,5.8,WeatherDisplay:10.37,2013-03-17 14:00:00,
2013-03-17 07:05:00,40.7,34.7,30.04,WSW,258,12.6,13.8,79,0.00,FEW,,0.00,8.1,WeatherDisplay:10.37,2013-03-17 14:05:00,
2013-03-17 07:10:00,40.7,34.7,30.04,WSW,254,14.0,18.0,79,0.00,FEW,,0.00,8.1,WeatherDisplay:10.37,2013-03-17 14:10:00,
2013-03-17 07:15:00,40.7,34.7,30.05,WSW,247,13.0,18.0,79,0.00,FEW,,0.00,10.3,WeatherDisplay:10.37,2013-03-17 14:15:00,
2013-03-17 07:20:00,40.7,34.7,30.05,West,264,14.2,16.1,79,0.00,CLR,,0.00,12.7,WeatherDisplay:10.37,2013-03-17 14:20:00,
2013-03-17 07:25:00,40.6,34.6,30.05,WSW,255,17.0,18.0,79,0.00,CLR,,0.00,13.8,WeatherDisplay:10.37,2013-03-17 14:25:00,
2013-03-17 07:30:00,40.7,34.7,30.05,West,265,15.8,16.1,79,0.00,CLR,,0.00,16.1,WeatherDisplay:10.37,2013-03-17 14:30:00,
2013-03-17 07:35:00,40.7,34.4,30.05,WSW,254,14.8,16.1,78,0.00,CLR,,0.00,18.4,WeatherDisplay:10.37,2013-03-17 14:35:00,
2013-03-17 07:40:00,40.8,34.8,30.06,SW,228,16.7,19.6,79,0.00,CLR,,0.00,21.9,WeatherDisplay:10.37,2013-03-17 14:40:00,
2013-03-17 07:45:00,40.8,34.5,30.06,WSW,245,14.0,20.0,78,0.00,CLR,,0.00,26.4,WeatherDisplay:10.37,2013-03-17 14:45:00,
2013-03-17 07:50:00,40.7,34.4,30.06,WSW,238,17.2,17.3,78,0.00,CLR,,0.00,32.2,WeatherDisplay:10.37,2013-03-17 14:50:00,
2013-03-17 07:55:00,40.7,34.4,30.07,WSW,242,16.0,20.0,78,0.00,CLR,,0.00,46.0,WeatherDisplay:10.37,2013-03-17 14:55:00,
2013-03-17 08:00:00,40.7,34.4,30.07,WSW,250,21.0,21.9,78,0.00,CLR,,0.00,48.3,WeatherDisplay:10.37,2013-03-17 15:00:00,
2013-03-17 08:05:00,40.7,34.4,30.07,WSW,248,15.0,22.0,78,0.00,CLR,,0.00,48.3,WeatherDisplay:10.37,2013-03-17 15:05:00,
2013-03-17 08:10:00,40.7,34.4,30.07,WSW,249,17.0,18.0,78,0.00,CLR,,0.00,48.3,WeatherDisplay:10.37,2013-03-17 15:10:00,
2013-03-17 08:15:00,40.7,34.4,30.07,WSW,248,16.0,16.0,78,0.00,CLR,,0.00,48.3,WeatherDisplay:10.37,2013-03-17 15:15:00,
2013-03-17 08:22:00,40.6,34.3,30.07,West,261,18.8,18.8,78,0.00,CLR,,0.00,74.8,WeatherDisplay:10.37,2013-03-17 15:22:00,
2013-03-17 08:27:00,40.7,34.4,30.08,WSW,257,18.1,19.6,78,0.00,CLR,,0.00,71.3,WeatherDisplay:10.37,2013-03-17 15:27:00,
2013-03-17 08:32:00,40.7,34.4,30.08,WSW,248,16.1,17.3,78,0.00,CLR,,0.00,79.3,WeatherDisplay:10.37,2013-03-17 15:32:00,
2013-03-17 08:37:00,40.7,34.4,30.08,WSW,253,13.9,18.4,78,0.00,CLR,,0.00,71.3,WeatherDisplay:10.37,2013-03-17 15:37:00,
2013-03-17 08:42:00,40.7,34.7,30.08,West,268,18.6,19.6,79,0.00,CLR,,0.00,71.3,WeatherDisplay:10.37,2013-03-17 15:42:00,
2013-03-17 08:47:00,40.7,34.7,30.08,West,263,22.2,22.2,79,0.00,CLR,,0.00,69.0,WeatherDisplay:10.37,2013-03-17 15:47:00,
2013-03-17 08:53:00,40.7,34.7,30.08,WSW,240,14.9,18.4,79,0.00,CLR,,0.00,77.0,WeatherDisplay:10.37,2013-03-17 15:53:00,
2013-03-17 08:58:00,40.7,34.7,30.09,WSW,252,13.8,16.1,79,0.00,CLR,,0.00,71.3,WeatherDisplay:10.37,2013-03-17 15:58:00,
2013-03-17 09:03:00,40.7,34.7,30.09,WSW,251,12.1,13.8,79,0.00,CLR,,0.00,287.5,WeatherDisplay:10.37,2013-03-17 16:03:00,
2013-03-17 09:08:00,40.9,34.9,30.09,WSW,238,15.8,16.1,79,0.00,CLR,,0.00,319.7,WeatherDisplay:10.37,2013-03-17 16:08:00,
2013-03-17 09:13:00,41.0,35.0,30.09,SW,235,11.4,13.8,79,0.00,CLR,,0.00,331.2,WeatherDisplay:10.37,2013-03-17 16:13:00,
2013-03-17 09:18:00,41.1,35.1,30.10,WSW,256,11.3,13.8,79,0.00,CLR,,0.00,339.3,WeatherDisplay:10.37,2013-03-17 16:18:00,
2013-03-17 09:23:00,41.4,35.7,30.10,West,263,9.6,11.5,80,0.00,CLR,,0.00,362.3,WeatherDisplay:10.37,2013-03-17 16:23:00,
2013-03-17 09:28:00,41.5,35.5,30.10,WSW,240,11.8,15.0,79,0.00,CLR,,0.00,363.4,WeatherDisplay:10.37,2013-03-17 16:28:00,
2013-03-17 09:33:00,41.6,35.3,30.10,West,262,15.0,16.1,78,0.00,CLR,,0.00,159.8,WeatherDisplay:10.37,2013-03-17 16:33:00,
2013-03-17 09:38:00,41.6,34.6,30.10,West,260,11.8,12.7,76,0.00,CLR,,0.00,151.8,WeatherDisplay:10.37,2013-03-17 16:38:00,
2013-03-17 09:43:00,41.6,34.6,30.10,West,260,9.5,12.7,76,0.00,CLR,,0.00,147.2,WeatherDisplay:10.37,2013-03-17 16:43:00,
2013-03-17 09:48:00,41.6,34.6,30.10,WSW,254,14.0,15.0,76,0.00,CLR,,0.00,189.8,WeatherDisplay:10.37,2013-03-17 16:48:00,
2013-03-17 09:53:00,41.6,34.9,30.10,West,262,13.3,15.0,77,0.00,CLR,,0.00,503.7,WeatherDisplay:10.37,2013-03-17 16:53:00,
2013-03-17 09:58:00,41.9,35.2,30.10,West,269,15.6,17.3,77,0.00,CLR,,0.00,519.8,WeatherDisplay:10.37,2013-03-17 16:58:00,
2013-03-17 10:03:00,42.2,35.2,30.10,West,267,14.9,16.8,76,0.00,CLR,,0.00,485.3,WeatherDisplay:10.37,2013-03-17 17:03:00,
2013-03-17 10:08:00,42.4,35.4,30.11,West,273,16.6,17.3,76,0.00,CLR,,0.00,483.0,WeatherDisplay:10.37,2013-03-17 17:08:00,
2013-03-17 10:13:00,42.5,35.2,30.10,West,263,18.0,19.6,75,0.00,CLR,,0.00,491.1,WeatherDisplay:10.37,2013-03-17 17:13:00,
2013-03-17 10:18:00,42.7,35.7,30.11,West,269,14.7,16.1,76,0.00,CLR,,0.00,503.7,WeatherDisplay:10.37,2013-03-17 17:18:00,
2013-03-17 10:23:00,42.8,35.8,30.11,WNW,284,14.1,15.0,76,0.00,CLR,,0.00,522.1,WeatherDisplay:10.37,2013-03-17 17:23:00,
2013-03-17 10:28:00,42.9,35.5,30.11,WNW,285,9.7,12.7,75,0.00,CLR,,0.00,531.3,WeatherDisplay:10.37,2013-03-17 17:28:00,
2013-03-17 10:33:00,43.0,35.3,30.11,West,271,9.1,12.7,74,0.00,CLR,,0.00,546.3,WeatherDisplay:10.37,2013-03-17 17:33:00,
2013-03-17 10:38:00,43.1,35.1,30.11,WNW,289,11.1,12.7,73,0.00,CLR,,0.00,560.0,WeatherDisplay:10.37,2013-03-17 17:38:00,
2013-03-17 10:43:00,43.3,35.6,30.11,WNW,290,10.0,11.5,74,0.00,CLR,,0.00,570.4,WeatherDisplay:10.37,2013-03-17 17:43:00,
2013-03-17 10:48:00,43.5,35.4,30.11,West,265,9.4,10.4,73,0.00,CLR,,0.00,579.6,WeatherDisplay:10.37,2013-03-17 17:48:00,
2013-03-17 10:53:00,43.7,35.3,30.11,West,277,6.5,9.2,72,0.00,CLR,,0.00,592.3,WeatherDisplay:10.37,2013-03-17 17:53:00,
2013-03-17 10:58:00,43.9,35.5,30.12,West,263,7.8,8.1,72,0.00,CLR,,0.00,606.0,WeatherDisplay:10.37,2013-03-17 17:58:00,
2013-03-17 11:03:00,44.2,36.1,30.12,West,263,7.6,8.1,73,0.00,CLR,,0.00,614.1,WeatherDisplay:10.37,2013-03-17 18:03:00,
2013-03-17 11:08:00,44.5,36.1,30.12,West,271,10.4,12.3,72,0.00,CLR,,0.00,624.5,WeatherDisplay:10.37,2013-03-17 18:08:00,
2013-03-17 11:13:00,44.9,36.1,30.12,West,267,11.7,12.3,71,0.00,CLR,,0.00,637.1,WeatherDisplay:10.37,2013-03-17 18:13:00,
2013-03-17 11:18:00,45.1,36.3,30.12,West,265,8.7,11.5,71,0.00,CLR,,0.00,647.5,WeatherDisplay:10.37,2013-03-17 18:18:00,
2013-03-17 11:23:00,45.4,35.5,30.12,WSW,256,11.4,12.7,68,0.00,CLR,,0.00,661.3,WeatherDisplay:10.37,2013-03-17 18:23:00,
2013-03-17 11:28:00,45.7,36.1,30.13,West,266,10.2,12.3,69,0.00,CLR,,0.00,671.6,WeatherDisplay:10.37,2013-03-17 18:28:00,
2013-03-17 11:33:00,46.0,36.0,30.13,West,265,9.7,12.7,68,0.00,CLR,,0.00,683.1,WeatherDisplay:10.37,2013-03-17 18:33:00,
2013-03-17 11:38:00,46.2,35.5,30.12,West,263,7.5,8.1,66,0.00,CLR,,0.00,707.3,WeatherDisplay:10.37,2013-03-17 18:38:00,
2013-03-17 11:43:00,46.5,35.8,30.13,WSW,241,11.6,12.7,66,0.00,CLR,,0.00,637.1,WeatherDisplay:10.37,2013-03-17 18:43:00,
2013-03-17 11:48:00,46.7,35.6,30.12,SW,234,8.9,11.5,65,0.00,CLR,,0.00,715.3,WeatherDisplay:10.37,2013-03-17 18:48:00,
2013-03-17 11:53:00,46.8,35.3,30.12,WSW,237,8.6,8.6,64,0.00,CLR,,0.00,722.2,WeatherDisplay:10.37,2013-03-17 18:53:00,
2013-03-17 11:58:00,47.0,35.5,30.13,West,268,5.5,6.9,64,0.00,CLR,,0.00,719.9,WeatherDisplay:10.37,2013-03-17 18:58:00,
2013-03-17 12:03:00,47.3,35.8,30.13,WSW,249,9.9,12.7,64,0.00,CLR,,0.00,736.0,WeatherDisplay:10.37,2013-03-17 19:03:00,
2013-03-17 12:08:00,47.4,35.4,30.13,WSW,257,9.9,11.5,63,0.00,CLR,,0.00,752.1,WeatherDisplay:10.37,2013-03-17 19:08:00,
2013-03-17 12:13:00,47.6,35.6,30.12,West,261,9.1,12.7,63,0.00,CLR,,0.00,747.5,WeatherDisplay:10.37,2013-03-17 19:13:00,
2013-03-17 12:18:00,47.6,34.8,30.12,West,272,11.2,13.8,61,0.00,FEW,,0.00,746.4,WeatherDisplay:10.37,2013-03-17 19:18:00,
2013-03-17 12:23:00,47.6,35.2,30.12,West,271,10.8,12.7,62,0.00,FEW,,0.00,757.9,WeatherDisplay:10.37,2013-03-17 19:23:00,
2013-03-17 12:28:00,47.6,35.2,30.12,West,268,10.7,11.5,62,0.00,FEW,,0.00,768.2,WeatherDisplay:10.37,2013-03-17 19:28:00,
2013-03-17 12:34:00,47.7,35.3,30.12,West,260,6.5,7.8,62,0.00,FEW,,0.00,757.9,WeatherDisplay:10.37,2013-03-17 19:34:00,
2013-03-17 12:39:00,48.0,36.0,30.12,West,267,7.0,8.1,63,0.00,FEW,,0.00,771.6,WeatherDisplay:10.37,2013-03-17 19:39:00,
2013-03-17 12:44:00,48.3,35.5,30.12,WSW,257,7.8,10.4,61,0.00,FEW,,0.00,701.5,WeatherDisplay:10.37,2013-03-17 19:44:00,
2013-03-17 12:49:00,48.5,35.7,30.12,WSW,253,7.9,10.4,61,0.00,CLR,,0.00,703.8,WeatherDisplay:10.37,2013-03-17 19:49:00,
2013-03-17 12:54:00,48.6,35.4,30.12,West,267,6.8,8.1,60,0.00,CLR,,0.00,800.4,WeatherDisplay:10.37,2013-03-17 19:54:00,
2013-03-17 12:59:00,48.9,35.6,30.12,West,269,7.3,7.8,60,0.00,CLR,,0.00,832.6,WeatherDisplay:10.37,2013-03-17 19:59:00,
2013-03-17 13:04:00,49.1,35.4,30.12,West,264,7.2,10.4,59,0.00,CLR,,0.00,818.8,WeatherDisplay:10.37,2013-03-17 20:04:00,
2013-03-17 13:09:00,49.5,35.8,30.12,WSW,242,6.6,10.1,59,0.00,CLR,,0.00,808.5,WeatherDisplay:10.37,2013-03-17 20:09:00,
2013-03-17 13:14:00,49.5,34.0,30.12,WSW,241,7.1,8.1,55,0.00,CLR,,0.00,800.4,WeatherDisplay:10.37,2013-03-17 20:14:00,
2013-03-17 13:19:00,49.5,34.0,30.12,West,263,8.6,10.4,55,0.00,CLR,,0.00,792.4,WeatherDisplay:10.37,2013-03-17 20:19:00,
2013-03-17 13:24:00,49.5,35.3,30.12,West,261,6.3,6.9,58,0.00,CLR,,0.00,810.8,WeatherDisplay:10.37,2013-03-17 20:24:00,
2013-03-17 13:29:00,49.7,35.1,30.12,SW,235,9.1,9.1,57,0.00,CLR,,0.00,816.5,WeatherDisplay:10.37,2013-03-17 20:29:00,
2013-03-17 13:34:00,49.8,34.3,30.12,WSW,242,7.8,8.1,55,0.00,CLR,,0.00,826.9,WeatherDisplay:10.37,2013-03-17 20:34:00,
2013-03-17 13:39:00,49.8,34.3,30.12,WSW,244,7.6,9.2,55,0.00,CLR,,0.00,822.3,WeatherDisplay:10.37,2013-03-17 20:39:00,
2013-03-17 13:44:00,49.8,35.6,30.12,WSW,258,7.1,8.1,58,0.00,CLR,,0.00,717.6,WeatherDisplay:10.37,2013-03-17 20:44:00,
2013-03-17 13:49:00,49.8,34.3,30.12,WSW,242,5.6,6.9,55,0.00,CLR,,0.00,717.6,WeatherDisplay:10.37,2013-03-17 20:49:00,
2013-03-17 13:54:00,49.9,35.7,30.11,West,259,5.9,8.1,58,0.00,CLR,,0.00,728.0,WeatherDisplay:10.37,2013-03-17 20:54:00,
2013-03-17 13:59:00,49.9,35.3,30.11,WSW,252,6.1,8.1,57,0.00,CLR,,0.00,776.3,WeatherDisplay:10.37,2013-03-17 20:59:00,
2013-03-17 14:04:00,50.0,35.4,30.11,WSW,243,6.8,6.9,57,0.00,CLR,,0.00,579.6,WeatherDisplay:10.37,2013-03-17 21:04:00,
2013-03-17 14:09:00,49.9,35.3,30.12,WSW,248,7.6,10.1,57,0.00,CLR,,0.00,420.9,WeatherDisplay:10.37,2013-03-17 21:09:00,
2013-03-17 14:14:00,49.5,34.5,30.11,WSW,251,7.7,8.1,56,0.00,CLR,,0.00,408.3,WeatherDisplay:10.37,2013-03-17 21:14:00,
2013-03-17 14:19:00,49.1,34.5,30.11,SW,224,6.3,8.1,57,0.00,CLR,,0.00,496.8,WeatherDisplay:10.37,2013-03-17 21:19:00,
2013-03-17 14:24:00,48.9,33.9,30.11,WSW,248,5.4,8.1,56,0.00,CLR,,0.00,469.2,WeatherDisplay:10.37,2013-03-17 21:24:00,
2013-03-17 14:29:00,48.6,32.7,30.11,SW,219,5.6,6.9,54,0.00,CLR,,0.00,466.9,WeatherDisplay:10.37,2013-03-17 21:29:00,
2013-03-17 14:34:00,48.5,33.5,30.11,WSW,246,4.0,5.8,56,0.00,CLR,,0.00,483.0,WeatherDisplay:10.37,2013-03-17 21:34:00,
2013-03-17 14:39:00,48.4,33.9,30.11,WSW,239,3.0,6.7,57,0.00,CLR,,0.00,549.7,WeatherDisplay:10.37,2013-03-17 21:39:00,
2013-03-17 14:44:00,48.4,33.0,30.11,SSW,204,3.7,6.9,55,0.00,CLR,,0.00,565.8,WeatherDisplay:10.37,2013-03-17 21:44:00,
2013-03-17 14:49:00,48.4,32.5,30.11,WSW,241,4.2,8.1,54,0.00,FEW,,0.00,570.4,WeatherDisplay:10.37,2013-03-17 21:49:00,
2013-03-17 14:54:00,48.5,33.1,30.11,SW,233,3.8,6.9,55,0.00,FEW,,0.00,455.4,WeatherDisplay:10.37,2013-03-17 21:54:00,
2013-03-17 14:59:00,48.5,32.6,30.11,WSW,244,3.2,4.6,54,0.00,FEW,,0.00,479.6,WeatherDisplay:10.37,2013-03-17 21:59:00,
2013-03-17 15:04:00,48.6,32.7,30.11,SW,231,3.2,6.9,54,0.00,CLR,,0.00,373.8,WeatherDisplay:10.37,2013-03-17 22:04:00,
2013-03-17 15:09:00,48.6,33.6,30.11,SSW,197,7.2,8.1,56,0.00,CLR,,0.00,672.8,WeatherDisplay:10.37,2013-03-17 22:09:00,
2013-03-17 15:14:00,48.8,33.8,30.11,SW,221,8.2,8.2,56,0.00,CLR,,0.00,480.7,WeatherDisplay:10.37,2013-03-17 22:14:00,
2013-03-17 15:19:00,48.8,36.0,30.11,SSW,204,13.9,15.7,61,0.00,FEW,,0.00,515.2,WeatherDisplay:10.37,2013-03-17 22:19:00,
2013-03-17 15:24:00,48.9,38.4,30.11,South,179,16.4,18.4,67,0.00,FEW,,0.00,523.3,WeatherDisplay:10.37,2013-03-17 22:24:00,
2013-03-17 15:29:00,48.7,38.2,30.11,SSW,201,14.9,19.6,67,0.00,FEW,,0.00,530.1,WeatherDisplay:10.37,2013-03-17 22:29:00,
2013-03-17 15:34:00,48.5,38.8,30.11,SSW,211,16.7,18.4,69,0.00,FEW,,0.00,630.2,WeatherDisplay:10.37,2013-03-17 22:34:00,
2013-03-17 15:39:00,48.5,38.8,30.11,SSW,207,16.9,18.4,69,0.00,FEW,,0.00,509.4,WeatherDisplay:10.37,2013-03-17 22:39:00,
2013-03-17 15:44:00,48.6,38.9,30.11,SW,231,16.6,16.6,69,0.00,FEW,,0.00,312.8,WeatherDisplay:10.37,2013-03-17 22:44:00,
2013-03-17 15:49:00,48.2,36.6,30.11,SW,226,14.7,16.1,64,0.00,CLR,,0.00,248.4,WeatherDisplay:10.37,2013-03-17 22:49:00,
2013-03-17 15:54:00,47.8,36.6,30.11,SW,221,14.3,14.3,65,0.00,CLR,,0.00,285.2,WeatherDisplay:10.37,2013-03-17 22:54:00,
2013-03-17 15:59:00,47.7,36.5,30.11,SW,223,15.7,16.1,65,0.00,CLR,,0.00,618.7,WeatherDisplay:10.37,2013-03-17 22:59:00,
2013-03-17 16:04:00,47.9,36.3,30.11,WSW,248,21.8,24.2,64,0.00,SCT,,0.00,282.9,WeatherDisplay:10.37,2013-03-17 23:04:00,
2013-03-17 16:09:00,47.4,35.0,30.11,WSW,248,15.1,21.9,62,0.00,SCT,,0.00,264.5,WeatherDisplay:10.37,2013-03-17 23:09:00,
2013-03-17 16:14:00,46.9,34.6,30.11,WSW,239,10.7,13.8,62,0.00,SCT,,0.00,189.8,WeatherDisplay:10.37,2013-03-17 23:14:00,
2013-03-17 16:19:00,46.7,35.6,30.11,West,271,25.8,25.8,65,0.00,BKN,,0.00,127.7,WeatherDisplay:10.37,2013-03-17 23:19:00,
2013-03-17 16:25:00,46.1,35.0,30.11,West,277,9.9,13.8,65,0.00,BKN,,0.00,115.0,WeatherDisplay:10.37,2013-03-17 23:25:00,
2013-03-17 16:30:00,45.7,35.0,30.12,West,269,12.4,16.1,66,0.00,BKN,,0.01,85.1,WeatherDisplay:10.37,2013-03-17 23:30:00,
2013-03-17 16:35:00,45.3,35.4,30.11,West,262,11.9,12.7,68,0.02,RA,,0.02,171.3,WeatherDisplay:10.37,2013-03-17 23:35:00,
2013-03-17 16:40:00,44.9,36.1,30.11,WNW,293,6.0,9.2,71,0.02,RA,,0.02,256.4,WeatherDisplay:10.37,2013-03-17 23:40:00,
2013-03-17 16:45:00,44.8,36.3,30.11,WNW,292,10.6,13.8,72,0.02,BKN,,0.02,238.1,WeatherDisplay:10.37,2013-03-17 23:45:00,
2013-03-17 16:50:00,44.8,37.0,30.11,NW,324,9.8,11.5,74,0.02,SCT,,0.02,279.4,WeatherDisplay:10.37,2013-03-17 23:50:00,
2013-03-17 16:55:00,44.8,37.4,30.11,NW,324,6.6,11.5,75,0.02,SCT,,0.02,320.9,WeatherDisplay:10.37,2013-03-17 23:55:00,
2013-03-17 17:00:00,44.9,37.1,30.11,WNW,293,7.7,11.5,74,0.02,SCT,,0.02,368.0,WeatherDisplay:10.37,2013-03-18 00:00:00,
2013-03-17 17:05:00,45.1,37.3,30.11,WNW,291,8.0,12.0,74,0.00,SCT,,0.02,325.4,WeatherDisplay:10.37,2013-03-18 00:05:00,
2013-03-17 17:10:00,45.2,37.4,30.11,WNW,292,6.2,8.1,74,0.02,SCT,,0.02,221.9,WeatherDisplay:10.37,2013-03-18 00:10:00,
2013-03-17 17:15:00,45.3,36.8,30.11,WSW,253,7.3,8.1,72,0.02,SCT,,0.02,197.8,WeatherDisplay:10.37,2013-03-18 00:15:00,
2013-03-17 17:20:00,45.4,36.9,30.11,West,264,5.5,6.9,72,0.02,SCT,,0.02,170.2,WeatherDisplay:10.37,2013-03-18 00:20:00,
2013-03-17 17:25:00,45.4,36.2,30.11,West,267,7.0,8.0,70,0.00,SCT,,0.02,143.8,WeatherDisplay:10.37,2013-03-18 00:25:00,
2013-03-17 17:30:00,45.4,35.8,30.11,West,267,6.5,6.9,69,0.01,SCT,,0.02,135.7,WeatherDisplay:10.37,2013-03-18 00:30:00,
2013-03-17 17:35:00,45.3,35.4,30.11,West,262,8.0,15.0,68,0.00,SCT,,0.02,111.5,WeatherDisplay:10.37,2013-03-18 00:35:00,
2013-03-17 17:40:00,45.1,34.8,30.11,WSW,240,34.3,34.3,67,0.00,SCT,,0.02,103.5,WeatherDisplay:10.37,2013-03-18 00:40:00,
2013-03-17 17:45:00,44.4,34.9,30.11,WSW,249,11.4,15.0,69,0.00,SCT,,0.02,141.4,WeatherDisplay:10.37,2013-03-18 00:45:00,
2013-03-17 17:50:00,44.2,35.1,30.11,SW,229,16.0,25.0,70,0.00,SCT,,0.02,141.4,WeatherDisplay:10.37,2013-03-18 00:50:00,
2013-03-17 17:55:00,44.1,34.6,30.10,SW,224,13.0,17.0,69,0.00,SCT,,0.02,155.3,WeatherDisplay:10.37,2013-03-18 00:55:00,
2013-03-17 18:00:00,44.3,34.8,30.10,SW,234,10.9,12.3,69,0.00,SCT,,0.02,123.0,WeatherDisplay:10.37,2013-03-18 01:00:00,
2013-03-17 18:05:00,44.4,34.9,30.10,WSW,243,17.0,20.0,69,0.00,FEW,,0.02,120.8,WeatherDisplay:10.37,2013-03-18 01:05:00,
2013-03-17 18:10:00,44.6,35.8,30.10,WSW,258,21.7,21.7,71,0.00,FEW,,0.02,103.5,WeatherDisplay:10.37,2013-03-18 01:10:00,
2013-03-17 18:15:00,44.7,35.2,30.10,WSW,255,16.0,25.0,69,0.00,FEW,,0.02,115.0,WeatherDisplay:10.37,2013-03-18 01:15:00,
2013-03-17 18:20:00,44.8,34.9,30.10,West,260,19.1,21.9,68,0.00,CLR,,0.02,129.9,WeatherDisplay:10.37,2013-03-18 01:20:00,
2013-03-17 18:25:00,44.9,35.7,30.10,WSW,248,18.7,21.9,70,0.00,CLR,,0.02,109.3,WeatherDisplay:10.37,2013-03-18 01:25:00,
2013-03-17 18:30:00,44.9,35.0,30.10,West,275,22.3,22.3,68,0.00,CLR,,0.02,90.8,WeatherDisplay:10.37,2013-03-18 01:30:00,
2013-03-17 18:35:00,44.9,35.3,30.10,West,261,22.0,24.0,69,0.00,CLR,,0.02,72.5,WeatherDisplay:10.37,2013-03-18 01:35:00,
2013-03-17 18:40:00,44.6,34.7,30.10,SW,234,17.0,21.9,68,0.00,CLR,,0.02,66.7,WeatherDisplay:10.37,2013-03-18 01:40:00,
2013-03-17 18:45:00,44.5,35.0,30.09,WSW,254,15.0,22.0,69,0.00,CLR,,0.02,61.0,WeatherDisplay:10.37,2013-03-18 01:45:00,
2013-03-17 18:50:00,44.4,34.5,30.09,SW,230,16.3,18.4,68,0.00,SCT,,0.02,61.0,WeatherDisplay:10.37,2013-03-18 01:50:00,
2013-03-17 18:55:00,44.3,34.0,30.09,WSW,250,17.0,22.0,67,0.00,SCT,,0.02,40.3,WeatherDisplay:10.37,2013-03-18 01:55:00,
2013-03-17 19:00:00,44.2,34.3,30.09,WSW,245,18.8,20.7,68,0.00,SCT,,0.02,32.2,WeatherDisplay:10.37,2013-03-18 02:00:00,
2013-03-17 19:05:00,44.2,34.3,30.09,WSW,253,20.0,22.0,68,0.00,BKN,,0.02,28.8,WeatherDisplay:10.37,2013-03-18 02:05:00,
2013-03-17 19:10:00,44.1,34.6,30.09,WSW,252,22.9,25.3,69,0.00,BKN,,0.02,21.9,WeatherDisplay:10.37,2013-03-18 02:10:00,
2013-03-17 19:15:00,44.1,34.6,30.09,WSW,252,18.0,26.0,69,0.00,BKN,,0.02,16.1,WeatherDisplay:10.37,2013-03-18 02:15:00,
2013-03-17 19:20:00,43.9,34.8,30.09,West,259,15.9,20.7,70,0.00,OVC,,0.02,12.7,WeatherDisplay:10.37,2013-03-18 02:20:00,
2013-03-17 19:25:00,43.8,35.0,30.09,SW,229,16.1,18.4,71,0.00,OVC,,0.02,10.3,WeatherDisplay:10.37,2013-03-18 02:25:00,
2013-03-17 19:30:00,43.7,34.6,30.09,SW,224,15.8,16.1,70,0.00,OVC,,0.02,8.1,WeatherDisplay:10.37,2013-03-18 02:30:00,
2013-03-17 19:35:00,43.6,34.8,30.09,SSW,211,12.1,15.0,71,0.00,SCT,,0.02,8.1,WeatherDisplay:10.37,2013-03-18 02:35:00,
2013-03-17 19:40:00,43.5,34.7,30.09,SW,236,17.0,22.0,71,0.00,SCT,,0.02,5.8,WeatherDisplay:10.37,2013-03-18 02:40:00,
2013-03-17 19:45:00,43.4,34.6,30.09,WSW,239,20.0,24.0,71,0.00,SCT,,0.02,5.8,WeatherDisplay:10.37,2013-03-18 02:45:00,
2013-03-17 19:50:00,43.3,34.2,30.09,WSW,242,22.1,22.1,70,0.00,SCT,,0.02,0.0,WeatherDisplay:10.37,2013-03-18 02:50:00,
2013-03-17 19:55:00,43.3,34.5,30.09,WSW,243,17.0,22.0,71,0.00,SCT,,0.02,5.8,WeatherDisplay:10.37,2013-03-18 02:55:00,
2013-03-17 20:00:00,43.3,34.5,30.09,WSW,244,21.5,21.9,71,0.00,SCT,,0.02,5.8,WeatherDisplay:10.37,2013-03-18 03:00:00,
2013-03-17 20:05:00,43.3,34.9,30.09,WSW,240,14.9,19.6,72,0.00,SCT,,0.02,5.8,WeatherDisplay:10.37,2013-03-18 03:05:00,
2013-03-17 20:10:00,43.2,34.8,30.09,SW,225,15.5,17.3,72,0.00,SCT,,0.02,5.8,WeatherDisplay:10.37,2013-03-18 03:10:00,
2013-03-17 20:15:00,43.1,35.1,30.09,WSW,238,20.9,20.9,73,0.00,SCT,,0.02,5.8,WeatherDisplay:10.37,2013-03-18 03:15:00,
2013-03-17 20:20:00,43.0,35.3,30.09,SW,234,23.2,24.2,74,0.00,BKN,,0.02,0.0,WeatherDisplay:10.37,2013-03-18 03:20:00,
2013-03-17 20:25:00,42.9,34.9,30.09,WSW,244,22.0,28.0,73,0.00,BKN,,0.02,5.8,WeatherDisplay:10.37,2013-03-18 03:25:00,
2013-03-17 20:30:00,42.8,35.1,30.09,WSW,255,19.3,21.9,74,0.00,BKN,,0.02,5.8,WeatherDisplay:10.37,2013-03-18 03:30:00,
2013-03-17 20:35:00,42.7,35.0,30.09,WSW,242,15.0,20.0,74,0.00,SCT,,0.02,5.8,WeatherDisplay:10.37,2013-03-18 03:35:00,
2013-03-17 20:40:00,42.5,34.8,30.10,SW,234,17.0,22.0,74,0.00,SCT,,0.02,5.8,WeatherDisplay:10.37,2013-03-18 03:40:00,
2013-03-17 20:45:00,42.4,35.0,30.10,WSW,239,18.0,21.0,75,0.00,SCT,,0.02,5.8,WeatherDisplay:10.37,2013-03-18 03:45:00,
2013-03-17 20:50:00,42.2,34.9,30.10,WSW,243,24.0,26.5,75,0.00,SCT,,0.02,5.8,WeatherDisplay:10.37,2013-03-18 03:50:00,
2013-03-17 20:55:00,42.1,35.1,30.10,WSW,246,22.0,25.0,76,0.00,SCT,,0.02,5.8,WeatherDisplay:10.37,2013-03-18 03:55:00,
2013-03-17 21:00:00,42.0,35.3,30.10,WSW,241,22.2,26.9,77,0.00,SCT,,0.02,5.8,WeatherDisplay:10.37,2013-03-18 04:00:00,
2013-03-17 21:05:00,41.9,34.9,30.10,WSW,238,24.7,25.8,76,0.00,CLR,,0.02,5.8,WeatherDisplay:10.37,2013-03-18 04:05:00,
2013-03-17 21:10:00,41.7,34.7,30.10,WSW,254,23.1,25.3,76,0.00,CLR,,0.02,5.8,WeatherDisplay:10.37,2013-03-18 04:10:00,
2013-03-17 21:15:00,41.6,34.6,30.10,SW,233,23.4,24.2,76,0.00,CLR,,0.02,5.8,WeatherDisplay:10.37,2013-03-18 04:15:00,
2013-03-17 21:20:00,41.6,34.6,30.10,WSW,242,17.3,23.0,76,0.00,CLR,,0.02,5.8,WeatherDisplay:10.37,2013-03-18 04:20:00,
2013-03-17 21:25:00,41.6,34.6,30.10,WSW,244,19.9,21.9,76,0.00,CLR,,0.02,5.8,WeatherDisplay:10.37,2013-03-18 04:25:00,
2013-03-17 21:30:00,41.6,34.6,30.10,WSW,244,20.8,25.3,76,0.00,CLR,,0.02,5.8,WeatherDisplay:10.37,2013-03-18 04:30:00,
2013-03-17 21:35:00,41.5,34.5,30.10,SW,236,23.6,24.6,76,0.00,CLR,,0.02,5.8,WeatherDisplay:10.37,2013-03-18 04:35:00,
2013-03-17 21:40:00,41.5,34.2,30.10,WSW,245,23.1,24.2,75,0.00,CLR,,0.02,5.8,WeatherDisplay:10.37,2013-03-18 04:40:00,
2013-03-17 21:45:00,41.5,34.5,30.10,WSW,244,23.6,23.6,76,0.00,CLR,,0.02,5.8,WeatherDisplay:10.37,2013-03-18 04:45:00,
2013-03-17 21:50:00,41.4,34.4,30.10,WSW,240,20.5,23.5,76,0.00,CLR,,0.02,5.8,WeatherDisplay:10.37,2013-03-18 04:50:00,
2013-03-17 21:55:00,41.4,34.4,30.10,WSW,238,22.9,24.2,76,0.00,CLR,,0.02,5.8,WeatherDisplay:10.37,2013-03-18 04:55:00,
2013-03-17 22:00:00,41.4,34.4,30.10,WSW,245,19.5,21.3,76,0.00,CLR,,0.02,5.8,WeatherDisplay:10.37,2013-03-18 05:00:00,
2013-03-17 22:05:00,41.3,34.3,30.10,SW,227,17.8,21.9,76,0.00,CLR,,0.02,5.8,WeatherDisplay:10.37,2013-03-18 05:05:00,
2013-03-17 22:10:00,41.3,34.7,30.10,WSW,243,18.6,21.9,77,0.00,CLR,,0.02,5.8,WeatherDisplay:10.37,2013-03-18 05:10:00,
2013-03-17 22:15:00,41.3,34.7,30.10,WSW,246,20.0,21.9,77,0.00,CLR,,0.02,5.8,WeatherDisplay:10.37,2013-03-18 05:15:00,
2013-03-17 22:20:00,41.3,34.7,30.10,WSW,238,17.7,22.4,77,0.00,FEW,,0.02,5.8,WeatherDisplay:10.37,2013-03-18 05:20:00,
2013-03-17 22:25:00,41.2,34.6,30.10,WSW,247,23.2,23.2,77,0.00,FEW,,0.02,5.8,WeatherDisplay:10.37,2013-03-18 05:25:00,
2013-03-17 22:30:00,41.3,34.7,30.10,WSW,240,19.1,19.6,77,0.00,FEW,,0.02,8.1,WeatherDisplay:10.37,2013-03-18 05:30:00,
2013-03-17 22:35:00,41.3,34.3,30.10,WSW,248,21.8,23.0,76,0.00,FEW,,0.02,5.8,WeatherDisplay:10.37,2013-03-18 05:35:00,
2013-03-17 22:40:00,41.2,34.6,30.10,WSW,242,22.7,23.0,77,0.00,FEW,,0.02,5.8,WeatherDisplay:10.37,2013-03-18 05:40:00,
2013-03-17 22:45:00,41.2,34.6,30.10,WSW,250,15.7,21.9,77,0.00,FEW,,0.02,5.8,WeatherDisplay:10.37,2013-03-18 05:45:00,
2013-03-17 22:50:00,41.2,34.6,30.10,NNE,29,16.4,21.9,77,0.00,FEW,,0.02,5.8,WeatherDisplay:10.37,2013-03-18 05:50:00,
2013-03-17 22:55:00,41.3,34.7,30.10,WSW,248,15.3,21.3,77,0.00,FEW,,0.02,5.8,WeatherDisplay:10.37,2013-03-18 05:55:00,
2013-03-17 23:00:00,41.2,34.6,30.10,SW,236,12.7,16.1,77,0.00,FEW,,0.02,5.8,WeatherDisplay:10.37,2013-03-18 06:00:00,
2013-03-17 23:05:00,41.2,34.9,30.10,WSW,250,18.6,20.7,78,0.00,CLR,,0.02,5.8,WeatherDisplay:10.37,2013-03-18 06:05:00,
2013-03-17 23:11:00,41.3,35.0,30.10,SW,227,16.5,20.7,78,0.00,CLR,,0.02,0.0,WeatherDisplay:10.37,2013-03-18 06:11:00,
2013-03-17 23:16:00,41.3,35.0,30.10,SW,231,20.4,21.9,78,0.00,CLR,,0.02,5.8,WeatherDisplay:10.37,2013-03-18 06:16:00,
2013-03-17 23:21:00,41.3,35.0,30.10,SW,234,17.5,23.5,78,0.00,CLR,,0.02,5.8,WeatherDisplay:10.37,2013-03-18 06:21:00,
2013-03-17 23:26:00,41.3,35.0,30.10,WSW,241,15.6,19.6,78,0.00,CLR,,0.02,0.0,WeatherDisplay:10.37,2013-03-18 06:26:00,
2013-03-17 23:31:00,41.2,34.9,30.10,SSW,211,16.7,20.7,78,0.00,CLR,,0.02,5.8,WeatherDisplay:10.37,2013-03-18 06:31:00,
2013-03-17 23:36:00,41.2,34.9,30.10,SW,223,18.3,19.6,78,0.00,CLR,,0.02,5.8,WeatherDisplay:10.37,2013-03-18 06:36:00,
2013-03-17 23:41:00,41.1,34.8,30.10,SW,224,15.3,18.4,78,0.00,CLR,,0.02,5.8,WeatherDisplay:10.37,2013-03-18 06:41:00,
2013-03-17 23:46:00,41.0,35.0,30.10,South,190,15.2,18.4,79,0.00,CLR,,0.02,5.8,WeatherDisplay:10.37,2013-03-18 06:46:00,
2013-03-17 23:51:00,41.0,35.0,30.10,SSW,211,16.8,18.4,79,0.00,CLR,,0.02,5.8,WeatherDisplay:10.37,2013-03-18 06:51:00,
2013-03-17 23:57:00,40.9,35.2,30.10,SW,220,15.1,18.4,80,0.00,CLR,,0.02,5.8,WeatherDisplay:10.37,2013-03-18 06:57:00,